Regional Weather Roundup
Issued by NWS

Home | Current Version | Previous Version | Graphics & Text | Print | Product List | Glossary On
Versions: 1 2 3 4 5 6 7 8 9 10 11 12 13 14 15 16 17 18 19 20 21 22 23 24 25 26 27 28 29 30 31 32 33 34 35 36 37 38 39 40 41 42 43 44 45 46 47 48 49 50
000
ASUS44 KMEG 301310
RWRTN
TENNESSEE HOURLY STATE WEATHER ROUNDUP
NATIONAL WEATHER SERVICE MEMPHIS TN
800 AM CDT SUN AUG 30 2015

TNZ002-004-019-021-049-052-054-088>092-301400-
WEST TENNESSEE

CITY           SKY/WX    TMP DP  RH WIND       PRES   REMARKS
MEMPHIS INTL   CLOUDY    75  68  78 CALM      30.05R
NWS MEMPHIS      N/A     73 N/A N/A MISG        N/A
JACKSON        MOSUNNY   71  67  87 SE5       30.08R
DYERSBURG      CLOUDY   N/A N/A N/A MISG        N/A
UNION CITY     SUNNY    N/A N/A N/A SE6       30.07R
PARIS          MOSUNNY   68  66  94 E3        30.10S
LEXINGTON      SUNNY     68  66  94 CALM      30.09S
$$

TNZ008-025-027-028-033-062-065-066-301400-
NORTH MIDDLE TENNESSEE

CITY           SKY/WX    TMP DP  RH WIND       PRES   REMARKS
NASHVILLE      PTSUNNY   71  67  87 CALM      30.13R
CLARKSVILLE    MOSUNNY   69  67  93 E3        30.11R
SMYRNA         PTSUNNY   71  70  97 CALM      30.13S
COOKEVILLE     SUNNY     72  70  94 SE3       30.15R
CROSSVILLE     CLOUDY    70  63  78 CALM      30.19R
$$

TNZ061-075-076-078-094-096-097-301400-
SOUTH MIDDLE TENNESSEE

CITY           SKY/WX    TMP DP  RH WIND       PRES   REMARKS
FAYETTEVILLE   SUNNY     68  66  94 CALM      30.14R
TULLAHOMA      SUNNY     68  63  83 SE5       30.15S
WINCHESTER     MOSUNNY   68  64  88 CALM      30.15R
MCMINNVILLE    SUNNY     70  70 100 CALM      30.15S
COLUMBIA       SUNNY     68  68 100 CALM      30.11R
SHELBYVILLE    SUNNY     72  72 100 CALM      30.14R
$$

TNZ017-018-042-046-047-301400-
NORTHEAST TENNESSEE

CITY           SKY/WX    TMP DP  RH WIND       PRES   REMARKS
TRI CITIES     CLOUDY    67  64  90 CALM      30.21S
ELIZABETHTON   SUNNY     64  59  82 NE5       30.22S
$$

TNZ012-013-036-069-073-074-301400-
CENTRAL EAST TENNESSEE

CITY           SKY/WX    TMP DP  RH WIND       PRES   REMARKS
KNOXVILLE      CLOUDY    69  69 100 NE3       30.15R
OAK RIDGE      CLOUDY    69  66  90 CALM      30.17S
GATLINBURG     SUNNY     68  63  83 CALM      30.17R
MORRISTOWN     SUNNY     70  64  83 E5        30.19S
$$

TNZ083-085-099-301400-
SOUTHEAST TENNESSEE

CITY           SKY/WX    TMP DP  RH WIND       PRES   REMARKS
CHATTANOOGA    CLOUDY    72  69  90 CALM      30.13S
$$

SKY/WX REPORTED AS FAIR MEANS FEW OR NO CLOUDS BELOW
12 THOUSAND FEET.



USA.gov is the U.S. government's official web portal to all federal, state and local government web resources and services.